CAPE
0 0 0 0 0 0 0 0 0 0 0 0 0 0 0 0 0 0 0 0 0 0 0 0 0 0 0 0 0 0 0 0 0 0 13 0 0 9 3 22 23 36 50 150 2
0 0 0 0 0 0 0 0 0 0 0 0 0 0 0 0 0 0 0 0 0 0 0 0 0 0 0 0 0 0 0 0 0 0 10 0 0 34 29 31 10 12 47 87 0
0 0 0 0 0 0 0 0 0 0 0 0 0 0 0 0 0 0 0 0 0 0 0 0 0 0 0 0 0 0 0 0 0 0 5 8 10 62 41 6 0 51 56 44 0
0 0 0 0 0 0 0 0 0 0 0 0 0 0 0 0 0 0 0 0 0 0 0 0 0 0 0 0 0 0 0 0 0 0 29 46 80 101 89 101 15 15 47 29 0
0 0 0 0 0 0 0 0 0 0 0 0 0 0 0 0 0 0 0 0 0 0 0 0 0 0 0 0 0 0 0 0 48 2 11 72 143 142 83 117 63 0 29 25 2
0 0 0 0 0 0 0 0 0 0 0 0 0 0 0 0 0 0 0 0 0 0 0 0 0 0 0 0 0 0 0 4 75 56 22 87 127 228 137 61 12 0 2 6 1
0 0 0 0 0 0 0 0 0 0 0 0 0 0 0 0 0 0 0 0 0 0 0 0 0 0 0 0 0 0 0 37 139 121 81 73 110 171 126 48 3 0 0 0 0
0 0 0 0 0 0 0 0 0 0 0 0 0 0 0 0 0 0 0 0 0 0 0 0 0 0 0 0 0 0 0 11 69 206 82 144 49 81 120 81 21 20 9 0 0
1 1 0 0 0 0 0 0 0 0 0 0 0 0 0 0 0 0 0 0 0 0 0 0 0 0 0 0 0 0 0 0 74 103 110 112 98 54 165 149 36 20 10 0 0
0 0 0 0 0 0 0 0 0 0 0 0 0 0 0 0 0 0 0 0 0 0 0 0 0 0 0 0 0 0 2 21 90 119 40 115 83 46 206 200 116 33 12 0 0
0 0 0 0 0 0 0 0 0 0 0 0 0 0 0 0 0 0 0 0 0 0 0 0 0 0 0 0 0 0 5 29 40 35 182 114 43 12 159 179 53 5 10 10 0
0 0 0 0 0 0 0 0 0 0 0 0 0 0 0 0 0 0 0 0 0 0 0 0 0 0 0 0 0 0 11 31 5 0 15 24 8 0 25 135 98 22 8 0 0
0 0 0 0 0 0 0 0 0 0 0 0 0 0 0 0 0 0 0 0 0 0 0 0 0 0 0 0 0 0 4 30 7 1 2 3 0 0 0 85 139 1 4 0 0
0 0 0 0 0 0 0 0 0 0 0 0 0 0 0 0 0 0 0 0 0 0 0 0 0 0 0 0 0 0 0 14 8 0 0 0 0 0 0 3 44 55 0 0 0
0 0 0 0 0 0 0 0 0 0 0 0 0 0 0 0 0 0 0 0 0 0 0 0 0 0 0 0 0 0 0 0 0 0 0 0 0 0 25 0 0 6 8 0 0
0 0 0 0 0 0 0 0 0 0 0 0 0 0 0 0 0 0 0 0 0 0 0 0 0 0 0 0 0 0 0 0 0 0 0 0 0 0 0 0 0 4 21 0 0
0 0 0 0 0 0 0 0 0 0 0 0 0 0 0 0 0 0 0 0 0 0 0 0 0 0 0 0 0 0 0 0 0 0 0 0 0 0 0 0 0 36 51 0 0
0 0 0 0 0 0 0 0 0 0 0 0 0 0 0 0 0 0 0 0 0 0 0 0 0 0 0 0 0 0 0 0 0 0 0 0 0 0 0 0 21 175 117 0 0
0 0 0 0 0 0 0 0 0 0 0 0 0 0 0 0 0 0 0 0 0 0 0 0 0 0 0 0 0 0 0 0 0 0 0 0 0 0 0 5 74 208 150 59 0
0 0 0 0 0 0 0 0 0 0 0 0 0 0 0 0 0 0 0 0 0 0 0 0 0 0 0 0 0 0 0 0 0 0 0 0 0 0 0 0 6 144 147 84 1
0 0 0 0 0 0 0 0 0 0 0 0 0 0 0 0 0 0 0 0 0 0 0 0 0 0 0 0 0 0 0 0 0 0 0 0 0 0 0 0 16 81 103 87 10
0 0 0 0 0 0 0 0 0 0 0 0 0 0 0 0 0 0 0 0 0 0 0 0 0 0 0 0 0 0 0 0 0 0 0 0 0 0 0 0 70 55 57 85 22
0 0 0 0 0 0 0 0 0 0 0 0 0 0 0 0 0 0 0 0 0 0 0 0 0 0 0 0 0 0 0 0 0 0 0 0 0 0 0 3 95 100 91 95 5
0 2 4 0 0 0 0 0 0 0 0 0 0 0 0 0 0 0 5 0 0 0 0 0 0 0 0 0 0 0 0 0 0 0 0 0 0 0 0 0 88 134 161 64 6
0 0 4 10 0 0 0 0 0 0 0 0 0 0 0 0 0 0 38 13 0 0 0 0 0 0 0 0 0 0 0 0 0 0 0 0 0 0 0 0 66 134 106 56 1
0 3 0 1 5 2 0 0 0 0 0 0 0 0 0 0 0 0 0 2 63 0 0 0 0 0 0 0 0 0 0 0 0 0 0 0 0 0 0 0 32 121 132 98 0
0 0 0 0 14 15 3 0 0 0 0 0 0 0 0 0 0 0 0 0 5 18 0 0 0 0 0 0 0 0 0 0 0 0 0 0 0 0 36 46 76 91 111 120 12
CIN
-0 -0 -0 -0 -0 -0 -0 -0 -0 -0 -0 -0 -0 -0 -0 -0 -0 -0 -0 -0 -0 -0 -0 -0 -0 -0 -0 -0 -0 -0 -0 -0 -0 -0 -187 -0 -0 -241 -19 -183 -247 -265 -248 -208 -29
-0 -0 -0 -0 -0 -0 -0 -0 -0 -0 -0 -0 -0 -0 -0 -0 -0 -0 -0 -0 -0 -0 -0 -0 -0 -0 -0 -0 -0 -0 -0 -0 -0 -0 -207 -0 -0 -208 -200 -208 -100 -266 -285 -298 -0
-0 -0 -0 -0 -0 -0 -0 -0 -0 -0 -0 -0 -0 -0 -0 -0 -0 -0 -0 -0 -0 -0 -0 -0 -0 -0 -0 -0 -0 -0 -0 -0 -0 -0 -167 -198 -175 -178 -172 -98 -0 -208 -333 -360 -0
-0 -0 -0 -0 -0 -0 -0 -0 -0 -0 -0 -0 -0 -0 -0 -0 -0 -0 -0 -0 -0 -0 -0 -0 -0 -0 -0 -0 -0 -0 -0 -0 -0 -0 -162 -117 -164 -156 -172 -171 -269 -351 -344 -396 -7
-0 -0 -0 -0 -0 -0 -0 -0 -0 -0 -0 -0 -0 -0 -0 -0 -0 -0 -0 -0 -0 -0 -0 -0 -0 -0 -0 -0 -0 -0 -0 -0 -169 -99 -176 -160 -109 -114 -157 -211 -281 -0 -386 -364 -198
-0 -0 -0 -0 -0 -0 -0 -0 -0 -0 -0 -0 -0 -0 -0 -0 -0 -0 -0 -0 -0 -0 -0 -0 -0 -0 -0 -0 -0 -0 -0 -87 -180 -168 -200 -124 -154 -127 -150 -266 -326 -0 -139 -413 -150
-0 -0 -0 -0 -0 -0 -0 -0 -0 -0 -0 -0 -0 -0 -0 -0 -0 -0 -0 -0 -0 -0 -0 -0 -0 -0 -0 -0 -0 -0 -0 -175 -175 -178 -173 -160 -136 -130 -164 -264 -84 -0 -0 -0 -0
-0 -0 -0 -0 -0 -0 -0 -0 -0 -0 -0 -0 -0 -0 -0 -0 -0 -0 -0 -0 -0 -0 -0 -0 -0 -0 -0 -0 -0 -0 -0 -109 -192 -155 -193 -130 -87 -170 -228 -274 -335 -416 -474 -0 -0
-0 -0 -0 -0 -0 -0 -0 -0 -0 -0 -0 -0 -0 -0 -0 -0 -0 -0 -0 -0 -0 -0 -0 -0 -0 -0 -0 -0 -0 -0 -0 -17 -123 -164 -135 -110 -72 -123 -236 -278 -320 -412 -369 -0 -0
-0 -0 -0 -0 -0 -0 -0 -0 -0 -0 -0 -0 -0 -0 -0 -0 -0 -0 -0 -0 -0 -0 -0 -0 -0 -0 -0 -0 -0 -0 -113 -118 -73 -118 -142 -96 -98 -175 -240 -270 -299 -396 -288 -0 -0
-0 -0 -0 -0 -0 -0 -0 -0 -0 -0 -0 -0 -0 -0 -0 -0 -0 -0 -0 -0 -0 -0 -0 -0 -0 -0 -0 -0 -0 -0 -126 -106 -81 -88 -71 -90 -122 -159 -209 -273 -356 -478 -507 -566 -0
-0 -0 -0 -0 -0 -0 -0 -0 -0 -0 -0 -0 -0 -0 -0 -0 -0 -0 -0 -0 -0 -0 -0 -0 -0 -0 -0 -0 -0 -3 -120 -114 -64 -0 -112 -110 -96 -0 -260 -236 -325 -459 -538 -0 -0
-0 -0 -0 -0 -0 -0 -0 -0 -0 -0 -0 -0 -0 -0 -0 -0 -0 -0 -0 -0 -0 -0 -0 -0 -0 -0 -0 -0 -0 -0 -73 -102 -52 -61 -115 -106 -0 -0 -0 -331 -387 -331 -299 -0 -0
-0 -0 -0 -0 -0 -0 -0 -0 -0 -0 -0 -0 -0 -0 -0 -0 -0 -0 -0 -0 -0 -0 -0 -0 -0 -0 -0 -0 -0 -0 -0 -78 -70 -4 -0 -0 -0 -0 -0 -136 -351 -383 -0 -0 -0
-0 -0 -0 -0 -0 -0 -0 -0 -0 -0 -0 -0 -0 -0 -0 -0 -0 -0 -0 -0 -0 -0 -0 -0 -0 -0 -0 -0 -0 -0 -0 -0 -0 -0 -0 -0 -0 -0 -258 -94 -0 -241 -309 -0 -0
-0 -0 -0 -0 -0 -0 -0 -0 -0 -0 -0 -0 -0 -0 -0 -0 -0 -0 -0 -0 -0 -0 -0 -0 -0 -0 -0 -0 -0 -0 -0 -0 -0 -0 -0 -0 -0 -0 -0 -0 -0 -230 -451 -0 -0
-0 -0 -0 -0 -0 -0 -0 -0 -0 -0 -0 -0 -0 -0 -0 -0 -0 -0 -0 -0 -0 -0 -0 -0 -0 -0 -0 -0 -0 -0 -0 -0 -0 -0 -0 -0 -0 -0 -0 -0 -0 -182 -357 -0 -0
-0 -0 -0 -0 -0 -0 -0 -0 -0 -0 -0 -0 -0 -0 -0 -0 -0 -0 -0 -0 -0 -0 -0 -0 -0 -0 -0 -0 -0 -0 -0 -0 -0 -0 -0 -0 -0 -0 -0 -119 -297 -326 -476 -0 -0
-0 -0 -0 -0 -0 -0 -0 -0 -0 -0 -0 -0 -0 -0 -0 -0 -0 -0 -0 -0 -0 -0 -0 -0 -0 -0 -0 -0 -0 -0 -0 -0 -0 -0 -0 -0 -0 -0 -69 -226 -317 -357 -510 -601 -0
-0 -0 -0 -0 -0 -0 -0 -0 -0 -0 -0 -0 -0 -0 -0 -0 -0 -0 -0 -0 -0 -0 -0 -0 -0 -0 -0 -0 -0 -0 -0 -0 -0 -0 -0 -0 -0 -0 -0 -0 -214 -262 -382 -598 -99
-0 -0 -0 -0 -0 -0 -0 -0 -0 -0 -0 -0 -0 -0 -0 -0 -0 -0 -0 -0 -0 -0 -0 -0 -0 -0 -0 -0 -0 -0 -0 -0 -0 -0 -0 -0 -0 -0 -0 -0 -134 -124 -347 -536 -695
-0 -0 -0 -0 -0 -0 -0 -0 -0 -0 -0 -0 -0 -0 -0 -0 -0 -0 -0 -0 -0 -0 -0 -0 -0 -0 -0 -0 -0 -0 -0 -0 -0 -0 -0 -0 -0 -0 -0 -0 -169 -182 -360 -538 -698
-0 -0 -0 -0 -0 -0 -0 -0 -0 -0 -0 -0 -0 -0 -0 -0 -0 -0 -0 -0 -0 -0 -0 -0 -0 -0 -0 -0 -0 -0 -0 -0 -0 -0 -0 -0 -0 -0 -0 -114 -210 -228 -405 -549 -696
-0 -4 -18 -0 -0 -0 -0 -0 -0 -0 -0 -0 -0 -0 -0 -0 -0 -0 -36 -0 -0 -0 -0 -0 -0 -0 -0 -0 -0 -0 -0 -0 -0 -0 -0 -0 -0 -0 -0 -0 -223 -336 -466 -566 -648
-0 -0 -7 -56 -0 -0 -0 -0 -0 -0 -0 -0 -0 -0 -0 -0 -0 -0 -68 -74 -0 -0 -0 -0 -0 -0 -0 -0 -0 -0 -0 -0 -0 -0 -0 -0 -0 -0 -0 -0 -200 -384 -496 -537 -228
-0 -0 -0 -125 -123 -123 -0 -0 -0 -0 -0 -0 -0 -0 -0 -0 -0 -0 -0 -25 -112 -0 -0 -0 -0 -0 -0 -0 -0 -0 -0 -0 -0 -0 -0 -0 -0 -0 -0 -2 -298 -326 -420 -399 -75
-0 -0 -0 -2 -68 -50 -17 -0 -0 -0 -0 -0 -0 -0 -0 -0 -0 -0 -0 -0 -166 -138 -0 -0 -0 -0 -0 -0 -0 -0 -0 -0 -0 -0 -0 -0 -0 -0 -152 -161 -161 -274 -323 -274 -394
Wind_Speed
31 31 31 32 32 31 31 30 31 31 30 31 28 27 26 24 23 20 25 25 20 11 14 13 19 19 15 17 14 13 11 8 15 22 21 24 24 21 22 20 21 20 17 18 20
31 31 32 32 32 32 31 31 31 31 31 29 28 27 25 24 22 21 24 26 17 9 11 9 6 13 18 19 17 15 13 19 21 22 21 23 24 23 22 19 19 17 15 19 19
30 31 32 32 32 32 32 31 31 31 30 29 28 27 25 23 18 17 18 22 10 11 12 13 6 11 13 18 20 16 20 23 22 21 19 19 21 20 18 19 18 16 16 18 18
31 32 32 33 33 33 33 32 31 32 29 29 27 26 25 18 16 13 12 10 13 13 9 8 6 9 8 4 21 17 19 19 22 20 17 19 19 19 19 17 17 15 17 17 16
33 33 33 34 33 33 33 33 32 32 31 29 27 25 20 19 19 14 7 10 11 17 11 8 6 8 16 12 10 21 14 13 11 16 15 15 17 16 18 14 15 16 16 15 14
34 34 35 35 35 34 34 34 33 32 32 30 27 23 19 20 15 13 4 10 14 15 16 11 7 9 14 16 17 10 11 9 5 12 12 12 10 11 16 11 12 14 14 13 12
35 35 35 36 36 35 35 35 34 33 33 31 26 20 22 26 16 12 9 15 15 17 15 18 11 8 12 15 13 6 6 8 6 8 8 9 9 12 10 10 12 12 12 11 9
35 35 36 36 36 36 36 36 35 34 30 26 15 16 24 19 18 14 14 15 19 21 19 19 14 13 12 10 13 13 11 8 13 6 9 7 11 9 9 10 11 11 9 8 7
34 35 35 36 36 36 36 36 33 25 22 9 14 17 24 16 20 18 14 16 17 21 22 16 14 12 11 12 12 15 4 9 10 5 7 4 8 8 8 8 7 8 6 4 5
35 35 35 35 35 36 37 33 21 15 13 19 17 20 23 19 17 17 16 11 16 15 19 18 15 13 11 12 11 8 9 11 4 4 4 2 4 8 7 6 7 6 4 3 5
33 33 34 34 34 34 30 20 21 22 22 23 19 24 21 18 16 18 15 15 15 18 22 22 20 14 8 5 21 10 7 3 10 6 1 4 3 1 6 1 2 6 4 4 6
32 33 33 34 33 31 22 18 15 23 28 29 34 32 32 22 21 19 12 16 18 21 20 22 21 16 12 11 11 6 3 5 16 15 6 19 9 5 4 9 9 6 5 6 5
32 32 32 33 33 19 24 16 20 21 26 29 28 29 29 19 25 25 15 17 20 23 25 25 27 14 13 14 11 10 5 3 12 13 13 21 27 21 10 6 5 6 9 6 7
31 32 31 32 21 24 21 20 25 18 24 25 22 25 21 17 26 20 18 19 20 25 25 28 24 20 20 17 13 14 9 9 14 17 22 20 34 24 16 4 4 7 6 6 4
31 31 30 27 27 23 22 26 22 15 23 18 19 16 17 18 16 21 16 19 21 22 28 28 27 23 23 22 14 19 16 13 15 18 21 22 28 27 19 10 6 8 6 5 3
32 31 30 22 23 26 25 25 15 18 23 18 15 16 14 22 20 17 20 18 19 20 24 27 25 26 26 23 20 17 18 17 17 19 25 21 24 33 13 14 17 9 5 3 6
33 32 31 24 21 18 24 19 17 22 20 18 18 16 18 20 20 20 22 20 18 21 23 25 33 27 24 23 22 22 19 26 30 27 29 25 25 12 14 11 12 12 4 4 2
34 35 29 23 24 22 21 17 24 20 23 20 19 18 18 18 21 21 22 26 27 21 23 23 29 31 25 25 23 22 20 24 38 39 42 25 29 22 18 13 7 9 6 6 3
35 26 24 23 17 17 16 24 21 19 20 23 21 18 20 21 20 19 21 27 28 24 22 23 25 21 29 23 23 25 27 21 27 28 34 30 29 26 18 4 5 8 9 6 3
27 25 23 18 7 15 20 25 21 20 20 19 19 19 20 19 22 24 23 25 27 24 21 21 23 26 21 24 29 27 18 27 27 30 32 31 31 25 24 10 4 4 6 7 5
22 22 17 12 10 18 26 24 25 24 21 19 19 21 20 21 25 25 25 25 22 23 22 24 23 20 19 19 19 23 25 22 20 23 29 33 29 19 17 17 7 3 8 5 5
20 23 18 7 17 21 24 23 25 26 22 21 20 21 20 22 24 24 23 23 17 20 17 18 22 28 23 17 15 21 21 20 25 25 23 27 33 22 23 20 10 8 9 6 4
21 20 14 17 22 22 22 25 27 29 28 25 24 21 21 23 23 23 27 27 17 15 14 13 25 29 30 30 21 21 21 19 20 23 25 29 31 22 23 14 13 12 10 6 5
19 20 17 19 21 20 22 26 28 29 31 30 29 27 26 24 21 20 20 20 21 15 11 11 21 27 33 26 19 20 19 18 19 24 27 17 18 32 13 14 11 10 8 6 5
17 20 18 21 23 21 22 21 25 28 27 26 26 27 20 23 21 18 17 19 15 15 14 15 26 24 25 24 21 17 19 21 19 21 23 27 17 17 27 9 5 4 5 5 6
18 20 20 20 18 21 21 24 25 26 28 30 30 24 22 23 22 21 17 15 15 15 13 19 24 20 29 22 24 31 27 21 20 20 21 23 27 21 21 14 6 3 3 5 5
17 19 20 22 20 20 21 22 24 25 29 33 35 31 28 23 24 28 26 25 21 17 14 17 20 20 29 21 20 30 23 20 19 19 20 23 20 18 18 14 7 5 3 3 3
Wind_Direction
308 306 302 302 299 296 294 294 298 299 300 302 296 293 293 290 280 274 236 213 221 208 213 215 215 214 229 225 235 235 259 318 183 143 135 152 148 172 153 88 127 129 92 94 103
304 306 303 298 298 295 292 292 295 294 297 293 292 294 291 290 281 253 228 217 219 164 214 196 163 222 228 225 229 253 273 211 168 134 106 121 123 115 136 106 158 134 59 100 108
303 303 303 299 295 295 290 288 291 291 289 289 289 292 291 288 272 269 238 217 185 209 219 221 216 242 250 236 225 256 207 187 182 148 100 103 125 120 103 128 144 112 92 108 112
301 300 300 299 295 294 290 287 286 289 283 286 282 288 288 285 260 278 237 198 198 224 201 210 222 254 277 294 226 242 242 245 205 128 104 112 102 130 128 141 137 109 112 111 116
298 296 297 296 295 293 291 286 283 284 282 281 280 283 287 274 255 271 236 206 210 225 215 214 204 256 250 282 305 216 291 279 274 105 105 95 119 116 148 177 78 97 106 110 117
296 293 294 294 293 292 289 286 283 277 277 276 276 276 278 262 269 271 211 218 226 224 225 229 238 268 274 274 272 291 293 291 359 83 85 94 75 91 158 82 80 105 115 118 119
295 293 292 292 292 290 289 286 280 276 271 270 274 280 266 240 267 268 236 239 229 230 228 234 260 279 287 284 292 316 339 337 337 59 49 35 15 143 55 97 109 120 121 121 123
295 294 291 292 291 289 289 285 279 276 268 275 291 286 255 266 260 259 248 245 237 236 239 236 256 273 288 309 294 279 290 302 289 337 356 14 169 143 94 118 132 133 134 135 129
297 294 292 291 291 290 289 283 279 286 280 310 289 278 256 275 253 248 247 249 239 236 237 243 256 273 283 283 282 270 299 290 305 330 350 23 356 175 142 143 138 148 150 147 142
296 293 291 291 291 292 290 282 285 299 300 272 286 269 260 259 255 248 247 254 240 230 235 240 251 260 268 272 271 273 278 286 331 129 351 37 182 16 136 152 170 173 169 183 177
298 294 291 290 290 293 294 292 281 277 274 262 269 256 258 268 264 247 243 244 242 230 230 236 241 236 226 259 273 282 282 283 303 324 340 187 357 54 157 166 229 200 217 229 242
298 296 294 290 289 290 292 282 299 283 267 259 247 252 249 262 254 250 234 245 239 229 234 237 233 244 257 274 292 272 241 290 290 299 304 307 294 342 193 213 211 215 234 236 240
301 299 296 292 289 296 278 278 298 296 273 266 259 255 249 254 250 246 232 245 240 236 232 240 246 232 252 259 270 280 187 238 298 313 319 308 303 319 336 230 245 272 243 259 230
302 299 301 296 294 290 268 286 294 289 275 268 264 261 247 250 253 249 236 238 249 236 239 245 248 236 246 256 262 273 285 283 296 312 307 321 293 322 338 260 253 257 262 261 259
300 296 299 303 282 281 274 283 289 284 270 276 266 279 247 235 258 240 242 242 246 242 238 241 241 244 245 252 257 271 287 290 299 306 311 316 304 317 336 338 257 252 241 269 239
295 293 297 307 293 273 272 279 277 271 264 279 274 260 236 240 251 241 238 244 252 250 250 246 252 250 253 257 254 271 280 295 305 304 300 315 310 274 328 336 339 328 298 256 205
293 288 290 294 283 290 280 267 263 258 274 276 273 261 242 238 240 242 231 230 244 246 248 250 248 254 255 254 260 262 272 279 282 286 294 310 307 253 327 326 334 343 334 318 258
293 285 288 285 277 273 265 256 256 266 265 279 273 261 244 236 239 244 234 237 245 251 250 250 252 249 254 252 256 260 263 268 272 276 280 304 303 322 335 338 336 351 12 16 26
294 298 291 282 273 265 257 247 255 264 271 270 270 258 251 240 241 243 244 243 243 245 254 253 260 269 253 258 251 260 263 279 280 291 290 298 308 320 324 288 352 356 6 20 66
298 292 284 285 267 254 254 251 257 261 273 272 264 263 251 237 241 244 248 254 248 247 253 265 263 260 271 254 255 257 265 269 277 283 290 297 303 320 322 337 334 336 354 12 30
299 285 286 290 259 256 251 252 253 255 268 264 265 259 259 253 246 247 253 254 244 246 250 256 264 266 260 260 249 256 257 271 283 285 292 297 303 330 328 335 332 292 336 1 16
295 273 296 252 261 259 253 254 252 251 260 262 263 259 259 265 253 249 250 246 255 242 247 254 262 256 255 270 271 260 257 264 274 283 296 300 257 319 317 327 339 336 340 357 24
288 281 280 273 259 256 258 255 252 249 253 254 253 259 270 263 257 253 251 251 256 243 243 243 256 254 255 261 270 266 263 274 285 292 292 297 303 322 323 326 328 332 346 9 38
287 273 273 261 267 265 257 255 250 250 251 251 250 259 264 256 257 259 259 263 259 238 230 240 258 253 251 260 267 265 265 274 285 293 300 299 308 302 327 321 324 333 358 26 55
288 272 274 262 257 263 259 256 248 248 248 251 247 245 260 252 255 258 267 270 271 254 235 244 256 258 261 261 268 274 266 273 286 300 304 307 313 326 328 334 325 359 23 30 21
284 274 273 268 266 259 258 253 250 250 244 242 238 244 255 254 252 255 271 271 267 266 247 252 258 263 262 271 269 264 270 282 288 300 305 308 307 326 334 351 356 14 3 349 5
292 281 271 263 262 259 257 253 249 255 247 244 244 246 249 260 261 257 256 261 266 271 265 255 254 264 260 275 274 266 273 282 291 301 307 303 320 334 340 348 3 345 326 330 6